Terug naar catalogus

STARLINK-31895

ActiefCommunicatieVLEO
NORAD 59849·PAYLOAD·🇺🇸 United States

Gelanceerd May 23, 2024 vanaf Cape Canaveral Space Force Station

Loading…

Volgende Passages (komende 24 uur)

TLE

VersSource: CelesTrak SupGP

Epoch: Sep 15, 2026, 02:49 UTC

1 59849C 24097Q   26258.11784722  .00005856  00000+0  21222-3 0  2585
2 59849  43.0006 284.4569 0001410 261.7965 281.8750 15.27557952    10

Volg STARLINK-31895 in realtime met AllMySat

Download on the App Store